When you browse on this site, cookies collect data to enhance your experience and personalize the content and advertising you see.
Visit our Privacy Policy to learn more. By continuing to use the site, you agree to this use of cookies and data.
  • In Latvia
  • List of Countries
  • For 7 days
  • Water Temperature
  • Satellite Maps
  • Weather Map
  • Weather Widgets
  • user-avatar
    Login

    Hourly Weather Canillo

    Today, 18 July, Thursday

    Time Temperature Precipitation Wind Pressure Humidity
    00:00 +11°C° 0 mm 1 mps 619 mmHg 96%
    01:00 +11°C° 0 mm 1 mps 619 mmHg 95%
    02:00 +11°C° 0 mm 1 mps 618 mmHg 95%
    03:00 +11°C° 0 mm 1 mps 618 mmHg 95%
    04:00 +11°C° 0 mm 1 mps 619 mmHg 94%
    05:00 +11°C° 0 mm 1 mps 619 mmHg 93%
    06:00 +12°C° 0 mm 1 mps 619 mmHg 92%
    07:00 +13°C° 0 mm 1 mps 620 mmHg 86%
    08:00 +15°C° 0 mm 1 mps 621 mmHg 79%
    09:00 +18°C° 0 mm 1 mps 621 mmHg 73%
    10:00 +18°C° 0 mm 1 mps 622 mmHg 69%
    11:00 +18°C° 0 mm 2 mps 622 mmHg 66%
    12:00 +19°C° 0 mm 2 mps 622 mmHg 63%
    13:00 +19°C° 0.3 mm 2 mps 622 mmHg 65%
    14:00 +19°C° 0.3 mm 1 mps 621 mmHg 68%
    15:00 +19°C° 0.3 mm 1 mps 621 mmHg 70%
    16:00 +18°C° 0.2 mm 1 mps 620 mmHg 74%
    17:00 +18°C° 0.2 mm 1 mps 620 mmHg 78%
    18:00 +16°C° 0.2 mm 1 mps 620 mmHg 82%
    19:00 +15°C° 0 mm 1 mps 620 mmHg 86%
    20:00 +13°C° 0 mm 1 mps 620 mmHg 90%
    21:00 +12°C° 0 mm 1 mps 619 mmHg 94%
    22:00 +11°C° 0 mm 1 mps 619 mmHg 94%
    23:00 +11°C° 0 mm 1 mps 619 mmHg 94%

    Tomorrow, 19 July, Friday

    Time Temperature Precipitation Wind Pressure Humidity
    00:00 +10°C° 0 mm 0 mps 619 mmHg 94%
    01:00 +10°C° 0 mm 0 mps 619 mmHg 93%
    02:00 +11°C° 0 mm 1 mps 619 mmHg 93%
    03:00 +11°C° 0 mm 1 mps 619 mmHg 92%
    04:00 +11°C° 0 mm 1 mps 620 mmHg 88%
    05:00 +11°C° 0 mm 0 mps 620 mmHg 84%
    06:00 +12°C° 0 mm 0 mps 620 mmHg 79%
    07:00 +15°C° 0 mm 1 mps 621 mmHg 68%
    08:00 +19°C° 0 mm 1 mps 622 mmHg 56%
    09:00 +21°C° 0 mm 1 mps 623 mmHg 45%
    10:00 +21°C° 0 mm 2 mps 623 mmHg 42%
    11:00 +23°C° 0 mm 2 mps 624 mmHg 40%
    12:00 +24°C° 0 mm 2 mps 624 mmHg 37%
    13:00 +24°C° 0 mm 2 mps 623 mmHg 38%
    14:00 +24°C° 0 mm 2 mps 623 mmHg 38%
    15:00 +24°C° 0 mm 2 mps 623 mmHg 39%
    16:00 +23°C° 0 mm 2 mps 622 mmHg 46%
    17:00 +21°C° 0 mm 2 mps 622 mmHg 53%
    18:00 +21°C° 0 mm 1 mps 621 mmHg 61%
    19:00 +19°C° 0 mm 1 mps 621 mmHg 66%
    20:00 +16°C° 0 mm 1 mps 620 mmHg 71%
    21:00 +14°C° 0 mm 1 mps 619 mmHg 77%
    22:00 +14°C° 0 mm 1 mps 619 mmHg 73%
    23:00 +14°C° 0 mm 1 mps 619 mmHg 70%

    Day after tomorrow, 20 July, Saturday

    Time Temperature Precipitation Wind Pressure Humidity
    00:00 +14°C° 0 mm 1 mps 619 mmHg 67%
    01:00 +14°C° 0 mm 1 mps 619 mmHg 68%
    02:00 +14°C° 0 mm 1 mps 619 mmHg 68%
    03:00 +14°C° 0 mm 2 mps 619 mmHg 69%
    04:00 +15°C° 0 mm 1 mps 620 mmHg 68%
    05:00 +16°C° 0 mm 1 mps 620 mmHg 66%
    06:00 +18°C° 0 mm 1 mps 621 mmHg 65%
    07:00 +20°C° 0 mm 1 mps 622 mmHg 58%
    08:00 +21°C° 0 mm 2 mps 623 mmHg 52%
    09:00 +24°C° 0 mm 2 mps 624 mmHg 45%
    10:00 +25°C° 0 mm 2 mps 624 mmHg 43%
    11:00 +26°C° 0 mm 2 mps 624 mmHg 40%
    12:00 +27°C° 0 mm 2 mps 625 mmHg 38%
    13:00 +27°C° 0 mm 2 mps 625 mmHg 38%
    14:00 +27°C° 0 mm 3 mps 624 mmHg 38%
    15:00 +27°C° 0 mm 3 mps 624 mmHg 38%
    16:00 +25°C° 0.1 mm 2 mps 624 mmHg 46%
    17:00 +24°C° 0.1 mm 2 mps 624 mmHg 54%
    18:00 +23°C° 0.1 mm 1 mps 623 mmHg 63%
    19:00 +21°C° 0.1 mm 1 mps 623 mmHg 69%
    20:00 +19°C° 0.1 mm 1 mps 623 mmHg 75%
    21:00 +16°C° 0.1 mm 1 mps 622 mmHg 81%
    22:00 +15°C° 0 mm 1 mps 622 mmHg 80%
    23:00 +15°C° 0 mm 1 mps 622 mmHg 78%

    21 July, Sunday

    Time Temperature Precipitation Wind Pressure Humidity
    00:00 +15°C° 0 mm 1 mps 622 mmHg 77%
    01:00 +15°C° 0 mm 1 mps 622 mmHg 73%
    02:00 +15°C° 0 mm 2 mps 622 mmHg 69%
    03:00 +15°C° 0 mm 2 mps 622 mmHg 66%
    04:00 +15°C° 0 mm 2 mps 623 mmHg 64%
    05:00 +16°C° 0 mm 2 mps 623 mmHg 62%
    06:00 +17°C° 0 mm 2 mps 624 mmHg 60%
    07:00 +19°C° 0 mm 2 mps 625 mmHg 53%
    08:00 +23°C° 0 mm 2 mps 626 mmHg 45%
    09:00 +25°C° 0 mm 3 mps 627 mmHg 38%
    10:00 +26°C° 0 mm 3 mps 627 mmHg 36%
    11:00 +27°C° 0 mm 2 mps 627 mmHg 34%
    12:00 +28°C° 0 mm 2 mps 627 mmHg 32%
    13:00 +28°C° 0 mm 2 mps 627 mmHg 33%
    14:00 +28°C° 0 mm 2 mps 627 mmHg 34%
    15:00 +28°C° 0 mm 2 mps 626 mmHg 34%
    16:00 +26°C° 0 mm 2 mps 626 mmHg 41%
    17:00 +25°C° 0 mm 2 mps 625 mmHg 48%
    18:00 +23°C° 0 mm 2 mps 625 mmHg 54%
    19:00 +21°C° 0 mm 2 mps 624 mmHg 58%
    20:00 +20°C° 0 mm 1 mps 624 mmHg 61%
    21:00 +18°C° 0 mm 1 mps 623 mmHg 64%
    22:00 +18°C° 0 mm 1 mps 623 mmHg 62%
    23:00 +17°C° 0 mm 2 mps 623 mmHg 60%

    22 July, Monday

    Time Temperature Precipitation Wind Pressure Humidity
    00:00 +17°C° 0 mm 2 mps 623 mmHg 58%
    01:00 +16°C° 0 mm 1 mps 623 mmHg 53%
    02:00 +16°C° 0 mm 1 mps 623 mmHg 49%
    03:00 +16°C° 0 mm 1 mps 623 mmHg 44%
    04:00 +18°C° 0 mm 1 mps 623 mmHg 45%
    05:00 +18°C° 0 mm 1 mps 623 mmHg 45%
    06:00 +19°C° 0 mm 1 mps 624 mmHg 46%
    07:00 +21°C° 0 mm 1 mps 625 mmHg 40%
    08:00 +24°C° 0 mm 1 mps 626 mmHg 35%
    09:00 +27°C° 0 mm 1 mps 627 mmHg 30%
    10:00 +27°C° 0 mm 1 mps 627 mmHg 30%
    11:00 +28°C° 0 mm 2 mps 627 mmHg 30%
    12:00 +29°C° 0 mm 2 mps 627 mmHg 30%
    13:00 +29°C° 0 mm 2 mps 627 mmHg 31%
    14:00 +28°C° 0 mm 2 mps 626 mmHg 32%
    15:00 +28°C° 0 mm 2 mps 626 mmHg 33%
    16:00 +27°C° 0.1 mm 2 mps 626 mmHg 40%
    17:00 +25°C° 0.1 mm 1 mps 625 mmHg 48%
    18:00 +24°C° 0.1 mm 1 mps 624 mmHg 56%
    19:00 +22°C° 0.3 mm 1 mps 624 mmHg 59%
    20:00 +20°C° 0.3 mm 1 mps 624 mmHg 62%
    21:00 +18°C° 0.3 mm 1 mps 623 mmHg 66%
    22:00 +18°C° 0.2 mm 1 mps 623 mmHg 67%
    23:00 +18°C° 0.2 mm 1 mps 623 mmHg 68%

    23 July, Tuesday

    Time Temperature Precipitation Wind Pressure Humidity
    00:00 +18°C° 0.2 mm 1 mps 623 mmHg 69%
    01:00 +18°C° 0 mm 1 mps 622 mmHg 69%
    02:00 +16°C° 0 mm 1 mps 622 mmHg 69%
    03:00 +16°C° 0 mm 1 mps 622 mmHg 69%
    04:00 +18°C° 0 mm 1 mps 622 mmHg 66%
    05:00 +18°C° 0 mm 1 mps 622 mmHg 64%
    06:00 +19°C° 0 mm 1 mps 622 mmHg 62%
    07:00 +22°C° 0 mm 1 mps 623 mmHg 54%
    08:00 +24°C° 0 mm 1 mps 624 mmHg 46%
    09:00 +27°C° 0 mm 1 mps 625 mmHg 37%
    10:00 +27°C° 0 mm 1 mps 625 mmHg 37%
    11:00 +28°C° 0 mm 2 mps 625 mmHg 36%
    12:00 +28°C° 0 mm 2 mps 625 mmHg 35%
    13:00 +25°C° 1.5 mm 2 mps 623 mmHg 47%
    14:00 +21°C° 1.5 mm 3 mps 622 mmHg 60%
    15:00 +18°C° 1.5 mm 3 mps 620 mmHg 73%
    16:00 +18°C° 1.8 mm 3 mps 620 mmHg 76%
    17:00 +17°C° 1.8 mm 3 mps 620 mmHg 78%
    18:00 +16°C° 1.8 mm 3 mps 619 mmHg 81%
    19:00 +16°C° 0.1 mm 3 mps 620 mmHg 76%
    20:00 +16°C° 0.1 mm 2 mps 620 mmHg 70%
    21:00 +16°C° 0.1 mm 2 mps 620 mmHg 64%
    22:00 +16°C° 0.1 mm 2 mps 620 mmHg 65%
    23:00 +16°C° 0.1 mm 2 mps 620 mmHg 66%
    Show more